P/2019 GG21 ( PanSTARRS )

Japanese version
Home page
Updated on May 19, 2019

---------------------------------------------------------------------

* Profile

Discovery Date April 4, 2019
Magnitude 21.0 mag
Discoverer Pan-STARRS 1 telescope (Haleakala)

* Orbital Elements

Epoch 2019 Apr. 27.0 TT = JDT 2458600.5
T 2019 May  9.68273 TT                                  MPCW
q   3.9347553            (2000.0)            P               Q
n   0.04835461     Peri.  208.27290     -0.98712206     +0.15605021
a   7.4618093      Node   340.60928     -0.11938221     -0.86505443
e   0.4726808      Incl.    6.08436     -0.10647968     -0.47679049
P  20.38
From 55 observations 2019 Mar. 29-Apr. 25, mean residual 0".5.

* Magnitudes Graph

        m1 = 12.0 + 5 log d + 10.0 log r

---------------------------------------------------------------------

The orbital elements are published on M.P.E.C. 2019-J142.
The magnitudes graphs are made with Comet for Windows.

---------------------------------------------------------------------

Copyright(C) Seiichi Yoshida (comet@aerith.net). All rights reserved.